#timestamp,LO_Frequency,Hit,StdDev 
1569499215.2,286047001.4,N
1569499235.1,286047001.8,N
1569499236.0,286047001.8,N
1569499255.8,286047003.9,N
1569499275.6,286047001.8,N
1569499295.5,286046999.8,N
1569499315.3,286046999.9,N
1569499335.1,286047000.4,N
1569499355.9,286047000.9,N
1569499375.7,286047000.3,N
1569499395.6,286046999.9,N
1569499415.4,286046999.7,N
1569499435.2,286047002.1,N
1569499455.1,286046999.7,N
1569499456.0,286046999.7,N
1569499475.8,286047000.6,N
1569499495.7,286047000.9,N
1569499515.5,286047000.5,N
1569499535.3,286046998.2,N
1569499555.2,286047000.5,N
1569499575.0,286047000.1,N
1569499575.9,286047000.1,N
1569499595.8,286047000.9,N
1569499615.6,286046998.5,N
1569499635.4,286046998.4,N
1569499655.3,286046998.3,N
1569499675.1,286047000.7,N
1569499695.9,286047000.1,N
1569499715.7,286046999.7,N
1569499735.5,286047002.5,N
1569499755.4,286047003.9,Y
1569499775.2,286047001.4,P
1569499795.0,286047000.5,N
1569499795.9,286047000.5,N
1569499815.8,286047000.8,N
1569499835.6,286047002.4,Y
1569499855.5,286047000.1,P
1569499875.3,286046998.2,P
1569499895.1,286047001.1,N
1569499915.9,286046998.3,N
1569499935.7,286047000.6,N
1569499955.6,286046998.5,N
1569499975.4,286046998.3,N
1569499995.2,286046998.4,N
1569500015.1,286046998.1,N
1569500016.0,286046998.1,N
1569500035.8,286046998.1,N
1569500055.2,286047002.1,N
1569500075.0,286047002.0,N
1569500075.9,286047002.0,N
1569500095.8,286047002.1,N
1569500115.6,286047001.3,N
1569500135.4,286047001.3,N
1569500155.3,286047003.1,N
1569500175.1,286047003.3,N
1569500195.9,286047005.5,Y
1569500215.7,286047004.7,P
1569500235.5,286047005.4,N
1569500255.4,286047006.0,N
1569500275.2,286047001.5,N
1569500295.0,286047000.2,N
1569500295.9,286047000.2,N
1569500315.8,286047000.1,N
1569500335.6,286047001.9,N
1569500355.5,286047002.0,N
1569500375.3,286047004.4,N
1569500395.2,286047002.5,N
1569500415.1,286046999.8,N
1569500416.0,286046999.8,N
1569500435.8,286047001.6,N
1569500455.7,286047002.5,N
1569500475.5,286047002.3,N
1569500495.3,286047004.0,N
1569500515.2,286047004.3,N
1569500535.0,286047003.8,N
1569500535.9,286047003.8,N
1569500555.8,286047003.8,N
1569500575.6,286047004.2,N
1569500595.4,286047004.4,N
1569500615.3,286047004.2,N
1569500635.1,286047001.7,N
1569500655.8,286047002.0,N
1569500675.7,286047001.8,N
1569500695.5,286047002.4,N
1569500715.4,286047000.3,N
1569500735.2,286047000.5,N
1569500755.0,286046998.2,N
1569500755.9,286046998.2,N
1569500775.8,286046998.7,N
1569500795.6,286047001.1,N
1569500815.5,286046998.6,N
1569500835.3,286046999.7,N
1569500855.1,286047000.2,N
1569500875.9,286046998.2,N
1569500895.7,286046998.8,N
1569500915.5,286046998.9,N
1569500935.4,286046999.6,N
1569500955.2,286046997.0,N
1569500975.1,286046996.8,N
1569500976.0,286046996.8,N
1569500995.8,286046994.9,N
1569501015.6,286046998.0,N
1569501035.5,286046996.7,N
1569501055.3,286046996.7,N
1569501075.2,286046996.8,N
1569501095.9,286046999.5,N
1569501115.7,286046997.5,N
1569501135.6,286046997.7,N
1569501155.4,286046996.8,N
1569501175.2,286046995.7,N
1569501195.1,286046993.9,Y
1569501196.0,286046993.9,P
1569501215.8,286046996.3,N
1569501235.7,286046995.1,N
1569501255.5,286046995.7,N
1569501275.3,286046996.1,N
1569501295.2,286046995.2,Y
1569501315.0,286046998.3,P
1569501315.9,286046998.3,N
1569501335.8,286046998.1,N
1569501355.6,286047001.5,N
1569501375.4,286047001.7,N
1569501395.3,286047003.7,N
1569501415.1,286047003.8,N
1569501435.9,286047005.9,N
1569501455.7,286047005.3,N
1569501475.5,286047005.9,N
1569501495.4,286047003.6,N
1569501515.2,286047003.6,N
1569501535.0,286047004.0,N
1569501535.9,286047004.0,N
1569501555.8,286047003.8,N
1569501575.6,286047006.0,N
1569501595.5,286047005.9,N
1569501615.3,286047005.5,N
1569501635.1,286047003.1,N
1569501655.9,286047005.6,N
1569501675.7,286047006.0,N
1569501695.6,286047005.7,N
1569501715.4,286047006.0,N
1569501735.2,286047003.5,N
1569501755.1,286047003.5,N
1569501756.0,286047003.5,N
1569501775.8,286047003.9,N
1569501795.6,286047001.8,N
1569501815.5,286047003.5,N
1569501835.3,286047001.3,N
1569501855.2,286047002.3,N
1569501875.9,286047002.6,N
1569501895.7,286047001.3,N
1569501915.6,286047001.3,N
1569501935.4,286047003.2,N
1569501955.3,286047004.4,N
1569501975.1,286047001.8,N
1569501995.0,286047000.2,N
1569501995.9,286047000.2,N
1569502015.8,286047000.3,N
1569502035.6,286047002.8,N
1569502055.4,286047000.7,N
1569502075.3,286047000.4,N
1569502095.1,286047000.5,N
1569502115.9,286047000.5,N
1569502135.7,286047000.0,N
1569502155.5,286047004.0,N
1569502175.4,286047004.2,N
1569502195.2,286047003.0,N
1569502215.0,286047003.0,N
1569502215.9,286047003.0,N
1569502235.8,286047003.7,N
1569502255.6,286047003.8,N
1569502275.5,286047001.4,N
1569502295.3,286047004.3,Y
1569502315.1,286047000.8,P
1569502335.9,286047000.4,N
1569502355.7,286047000.9,N
1569502375.6,286047000.4,N
1569502395.4,286047000.6,N
1569502415.2,286047000.0,N
1569502435.1,286047002.8,Y
1569502436.0,286047002.8,P
1569502455.8,286047000.1,N
1569502475.7,286046999.8,N
1569502495.5,286047000.4,N
1569502515.3,286046999.8,N
1569502535.2,286047002.8,N
1569502555.0,286047000.0,N
1569502555.9,286047000.0,N
1569502575.8,286046999.8,N
1569502595.6,286047000.3,N
1569502615.4,286047001.1,N
1569502635.3,286046998.2,N
1569502655.1,286046998.7,N
1569502675.8,286046998.1,N
1569502695.7,286047000.2,N
1569502715.5,286047000.6,N
1569502735.4,286047002.0,N
1569502755.5,286047002.0,N
1569502775.4,286047004.1,Y
1569502795.2,286047000.1,P
